Temp
23 23 23 23 22 22 22 22 22 22 21 22 22 21 21 21 21 21 21 21 20 20 20 20 20 20 20 20 20 20 20 20 20 20 19 19 20 19 19 19 19 19
23 23 23 23 22 22 22 22 22 22 22 22 22 22 21 21 21 21 21 21 21 20 20 20 20 20 20 20 20 20 20 20 20 20 19 20 19 19 19 19 19 19
23 23 23 23 22 22 22 22 22 22 22 22 22 22 21 21 21 21 21 21 21 21 21 20 20 21 21 20 20 20 20 20 20 20 20 20 19 19 19 19 19 19
23 23 23 23 22 22 22 22 22 22 22 22 22 22 22 22 21 21 21 21 21 21 21 21 21 21 21 21 20 20 20 20 20 20 20 20 19 19 19 19 19 19
23 23 23 23 22 22 22 22 22 22 21 22 22 22 22 21 21 21 21 21 21 21 21 21 21 21 21 20 20 20 20 20 20 19 19 19 19 19 19 19 19 19
23 23 23 23 22 22 22 22 22 21 21 22 22 22 22 21 21 21 21 21 21 21 21 21 20 20 20 20 20 20 20 20 20 20 19 19 19 19 19 19 19 19
23 23 23 22 22 22 22 22 21 21 22 22 22 22 22 22 22 21 21 21 21 21 21 21 20 20 20 20 20 20 20 20 20 20 19 19 19 19 19 19 18 19
23 23 23 22 22 22 22 22 21 22 22 22 22 22 22 22 22 22 22 22 22 21 21 21 20 20 20 20 20 20 20 20 20 20 19 19 19 19 19 18 18 19
23 23 23 22 22 22 22 22 22 22 22 22 22 22 22 22 22 22 22 22 22 22 21 21 20 20 20 20 20 20 20 20 19 19 19 19 19 19 19 19 19 19
23 23 23 22 22 22 22 22 22 22 22 22 22 22 22 22 22 22 22 22 22 22 21 21 21 21 20 20 20 20 19 19 19 19 19 19 19 19 19 18 19 19
23 23 23 23 22 22 22 22 22 22 23 23 23 22 22 22 22 22 22 22 22 22 21 21 21 21 21 21 20 20 20 19 19 19 20 19 19 19 19 19 19 19
23 23 23 23 23 23 23 23 23 23 23 23 23 22 22 22 22 22 22 22 22 22 21 21 21 21 21 21 20 20 20 20 19 19 20 20 19 19 19 19 19 19
23 23 23 23 23 23 23 23 23 23 23 23 22 22 22 22 22 22 22 22 22 21 21 21 21 21 21 21 20 20 20 20 20 20 20 20 19 19 19 19 19 19
23 23 23 23 23 23 23 23 23 23 23 22 22 22 22 21 22 22 22 22 21 21 21 21 21 21 21 20 20 20 20 20 20 20 20 20 19 19 19 18 18 18
24 23 23 23 23 23 23 23 23 23 22 22 22 21 21 21 21 21 21 21 21 21 21 21 21 21 21 20 20 20 20 20 20 20 20 19 19 19 19 18 18 18
24 24 24 23 23 23 23 23 23 22 22 22 21 21 21 21 21 21 21 21 21 21 21 21 21 21 21 20 20 20 20 20 20 20 19 19 19 19 19 18 18 18
24 24 24 24 23 23 23 23 22 22 22 21 21 21 21 21 21 21 21 21 21 21 21 21 21 21 21 21 21 21 20 20 20 20 20 19 19 19 18 18 18 18
24 24 24 24 23 23 23 22 22 22 22 21 21 21 21 21 21 21 21 21 21 21 21 21 21 21 21 21 21 21 20 20 20 20 20 19 19 19 18 18 18 18
24 24 24 23 23 23 23 22 22 22 22 21 21 21 21 21 21 21 21 21 21 21 21 21 21 21 21 21 21 21 20 20 20 20 19 19 19 19 18 18 18 18
24 24 23 23 23 23 22 22 22 22 22 21 21 21 21 21 21 21 21 21 21 21 21 21 21 21 21 21 21 21 20 20 20 19 19 19 19 18 18 18 18 18
24 23 23 23 23 22 22 22 22 22 22 21 21 21 21 21 21 21 22 21 21 21 21 21 21 21 21 21 21 20 20 20 20 19 19 19 18 18 18 18 18 18
23 23 23 23 23 22 22 22 22 22 22 22 21 21 21 21 21 21 21 21 21 21 21 21 21 21 21 21 20 20 20 20 19 19 19 18 18 18 18 18 18 18
23 23 23 23 22 22 22 22 22 22 22 22 21 21 21 21 21 21 21 21 22 21 21 21 21 21 21 20 20 20 20 19 19 19 18 18 18 18 18 18 18 18
23 23 23 23 22 22 22 22 22 22 22 22 22 21 21 21 21 21 21 22 22 21 21 21 21 21 21 20 20 20 19 19 19 18 18 18 18 18 17 17 17 17
23 23 23 23 22 22 22 22 22 22 22 22 22 22 22 22 22 22 22 22 22 22 22 21 21 21 20 20 20 19 19 19 18 18 18 18 18 17 17 17 17 17
23 23 23 23 23 23 22 22 22 22 22 22 22 22 22 22 22 22 22 22 22 22 21 21 20 20 20 20 19 19 19 18 18 18 18 18 17 17 17 17 17 17
Height
816 817 818 819 820 820 821 822 822 823 823 823 823 823 823 823 823 823 823 823 823 823 823 823 823 823 823 822 822 822 822 821 821 821 820 820 820 819 819 819 819 818
814 815 817 817 818 819 819 820 821 822 822 822 822 822 822 822 822 822 822 822 822 822 822 822 822 822 822 821 821 821 821 821 820 820 820 819 819 818 818 818 818 818
812 813 814 816 816 817 818 819 820 820 821 821 821 821 821 821 821 821 821 821 821 821 821 821 821 820 820 820 820 820 820 820 819 819 819 818 818 818 817 817 817 817
810 812 813 814 815 816 817 818 818 819 819 820 820 820 820 820 820 820 820 820 819 820 820 819 819 819 819 819 819 819 819 819 818 818 818 817 817 817 816 816 816 815
809 810 811 812 813 814 816 816 817 817 818 818 818 818 819 819 819 818 818 818 818 818 818 818 818 818 818 818 818 818 818 817 817 817 817 816 816 816 815 815 814 814
808 809 810 811 812 813 814 814 816 816 816 816 816 817 817 817 817 817 816 816 816 816 816 816 817 817 817 817 817 817 816 816 816 816 816 815 815 815 814 814 813 813
806 807 808 810 810 811 812 813 814 814 814 814 815 816 816 816 816 815 814 815 815 815 815 815 815 815 815 815 815 815 815 815 815 814 814 814 814 814 813 812 812 812
805 805 806 807 808 810 810 811 812 812 812 813 813 814 814 814 813 813 813 813 813 813 813 813 813 813 813 813 813 813 813 813 813 813 813 812 812 812 811 811 811 810
804 805 806 806 806 808 809 809 810 810 810 810 811 811 812 812 812 811 812 811 811 811 811 811 811 811 811 811 811 811 811 811 811 811 811 810 810 810 809 809 808 808
803 805 805 805 805 806 807 808 808 808 808 809 809 810 810 810 810 810 810 810 810 809 809 809 809 809 809 809 809 809 809 809 809 809 809 809 808 807 807 807 806 806
803 804 804 803 803 804 805 805 806 806 807 808 808 808 808 809 809 809 809 809 808 807 807 808 808 807 807 807 807 807 807 807 807 807 807 806 806 805 805 805 804 803
800 802 802 802 801 802 803 803 804 805 805 805 805 806 806 807 807 807 807 807 807 806 806 807 806 806 805 805 805 805 805 805 805 805 805 804 803 803 803 802 802 801
795 797 799 799 799 800 800 801 802 803 803 803 804 804 804 805 805 805 805 805 805 805 805 805 804 804 803 803 803 803 803 803 803 803 802 801 801 800 800 800 799 799
792 794 796 796 797 797 798 799 799 800 801 801 802 802 802 803 803 803 803 803 803 803 803 803 802 801 801 801 801 801 801 800 800 801 800 799 798 798 798 798 797 797
791 792 793 794 795 795 796 796 797 798 798 799 800 800 800 801 801 801 801 801 801 801 800 800 800 799 799 799 799 798 798 798 798 798 798 797 797 796 795 795 795 794
789 790 790 791 792 792 793 793 794 795 796 797 797 797 798 798 798 799 799 799 799 798 798 798 797 797 797 797 796 796 796 796 795 796 796 796 795 794 794 793 793 792
787 787 788 789 789 789 790 791 793 794 794 795 795 795 795 795 796 796 796 797 796 796 796 796 795 795 794 794 794 794 793 793 793 794 794 794 793 792 792 791 791 791
785 785 785 786 786 787 788 789 791 792 792 793 792 792 793 793 793 793 794 794 794 794 794 793 793 792 792 792 792 791 792 791 792 792 791 791 791 790 789 789 788 788
782 782 783 784 784 785 787 788 789 790 790 790 790 791 791 791 791 791 791 792 792 792 792 791 790 790 789 789 789 789 789 789 789 790 789 789 788 787 787 787 786 786
780 780 781 782 782 783 784 785 786 786 787 787 788 789 790 789 789 789 789 790 790 790 790 789 788 788 787 787 787 787 787 787 787 787 787 786 786 785 785 784 784 784
777 777 778 779 779 780 781 782 783 783 783 785 785 787 787 787 787 787 787 787 787 788 787 787 786 786 785 785 785 784 784 784 784 784 784 784 784 783 783 782 782 781
774 775 776 776 776 777 778 778 779 779 780 782 783 784 784 784 785 785 785 785 785 785 785 785 784 784 783 783 782 782 782 782 782 782 782 782 782 781 781 780 780 779
772 772 772 773 774 774 774 775 775 776 778 779 780 781 781 782 782 782 783 782 782 782 783 783 782 782 781 781 781 780 780 780 779 780 780 780 780 779 779 778 778 777
769 769 770 771 771 771 771 771 772 774 775 776 777 778 778 779 779 780 780 780 779 780 780 780 780 779 779 779 779 779 778 777 777 777 778 778 777 777 776 776 775 775
766 767 768 768 768 768 768 769 770 771 772 773 775 775 776 776 777 777 777 777 777 777 777 777 777 777 777 777 777 777 776 775 775 775 775 775 775 774 773 773 773 773
763 764 765 764 764 764 765 767 767 768 770 771 772 773 773 774 774 774 774 774 774 774 774 775 775 775 775 775 775 775 774 773 773 774 773 773 773 772 771 770 770 770
Wind_Speed
11 9 8 7 6 6 6 5 5 4 4 3 4 4 4 5 6 5 4 5 7 8 8 7 7 7 8 8 7 8 9 8 8 7 7 8 9 8 9 8 8 9
11 10 10 9 7 6 5 4 5 5 5 4 4 4 5 4 4 4 4 6 8 8 8 8 8 8 8 8 8 8 9 9 8 7 7 8 9 9 9 9 7 8
12 12 11 9 6 5 5 5 6 6 6 5 4 4 4 4 4 4 4 6 7 7 8 8 8 9 8 7 8 9 9 9 9 8 8 8 8 9 10 9 7 7
14 13 11 8 7 6 6 7 7 7 7 6 5 5 5 4 4 3 4 6 6 7 8 8 8 8 8 7 8 8 9 10 9 8 9 9 9 9 9 9 8 8
15 14 12 10 9 8 8 9 8 8 7 7 8 8 7 6 5 5 6 6 6 7 8 8 8 8 8 8 8 9 10 10 9 8 9 10 10 10 9 9 10 9
15 14 13 12 10 10 10 10 9 8 8 10 11 9 9 9 8 7 6 6 7 8 7 7 8 8 8 8 9 9 10 9 8 9 10 10 10 10 10 10 10 9
16 15 14 12 11 10 10 10 9 10 11 11 11 11 11 12 10 8 7 8 9 9 8 7 7 8 8 9 9 9 8 8 9 10 11 10 10 11 11 11 10 10
17 17 15 13 12 11 10 10 11 11 12 12 13 13 13 14 14 12 11 10 10 11 10 8 6 6 7 9 9 9 8 8 9 10 11 11 12 12 11 12 11 11
17 16 15 13 12 12 11 12 12 13 13 14 15 14 14 16 16 14 13 11 12 14 13 9 7 6 7 9 10 9 9 9 10 10 11 11 13 13 12 12 12 12
17 16 16 14 13 14 14 14 13 14 14 11 9 10 11 11 10 9 9 10 11 14 14 11 8 6 7 9 9 9 10 11 11 12 12 12 14 14 12 11 13 14
18 17 17 16 15 15 16 15 14 14 10 6 4 4 3 4 5 5 6 8 8 9 9 9 7 7 8 9 9 10 11 12 12 12 12 13 14 14 13 12 13 14
20 21 19 18 17 17 15 14 14 13 10 7 7 6 5 6 6 5 6 7 6 4 4 7 8 8 10 10 10 10 12 12 11 11 11 13 13 14 13 13 13 15
22 23 22 19 18 17 14 14 14 13 12 10 10 10 10 8 6 6 7 7 7 8 10 11 10 10 11 11 10 10 11 11 10 10 11 13 14 14 13 13 14 15
24 25 23 20 19 17 16 16 16 15 14 14 14 13 11 8 6 7 8 9 11 13 12 10 10 10 9 9 10 11 11 9 8 9 11 13 14 15 15 14 15 15
27 26 23 20 19 19 18 18 18 17 16 16 15 12 9 8 9 9 10 12 12 11 10 9 10 10 9 9 10 11 10 9 9 9 10 12 14 15 16 15 15 15
28 25 23 21 22 22 22 21 19 18 17 16 14 12 11 11 11 11 11 12 11 11 11 11 10 10 10 10 10 10 10 10 10 10 10 11 13 14 15 15 15 15
28 26 24 24 24 23 22 21 19 17 17 16 14 14 13 12 11 12 12 11 11 12 13 12 11 10 11 11 11 12 12 12 11 11 11 11 12 13 14 14 15 16
27 26 26 25 24 23 21 20 18 18 18 17 17 16 14 13 12 13 12 12 13 13 12 12 12 12 12 12 11 10 11 12 11 11 11 12 12 13 13 14 15 17
26 27 26 25 24 22 21 20 19 19 20 20 19 17 15 14 13 13 13 13 13 12 12 13 14 14 11 8 7 7 8 9 11 12 12 12 13 13 13 14 15 17
26 26 26 25 24 23 22 22 22 22 22 21 20 17 16 15 14 13 13 12 11 11 13 15 16 13 9 7 8 9 8 8 10 12 13 13 13 13 13 14 16 17
28 27 27 26 24 23 24 24 24 24 24 22 20 18 17 16 15 13 12 11 11 13 15 16 14 11 9 10 10 9 8 9 10 11 13 13 13 13 14 15 16 17
28 27 27 27 26 26 26 27 27 27 26 23 21 20 18 17 16 15 13 13 14 15 16 15 13 11 10 11 10 8 8 9 10 10 11 12 13 14 16 17 17 16
29 29 28 28 27 27 28 29 29 28 26 24 22 21 20 18 18 16 15 16 16 15 14 13 12 11 10 10 9 8 9 8 8 8 9 11 13 14 16 17 16 14
30 29 29 29 29 30 31 31 29 28 27 25 23 22 21 20 19 18 16 15 14 13 13 13 13 12 10 9 10 10 10 7 6 6 8 11 12 14 15 16 15 15
29 30 30 30 31 32 32 30 29 28 26 24 23 22 21 21 20 19 18 17 15 15 14 12 12 10 9 9 10 11 9 7 6 6 9 11 13 15 16 16 17 17
29 30 31 32 34 35 34 32 31 29 26 24 23 21 21 21 21 21 20 17 16 15 12 9 8 8 9 10 10 10 8 7 6 6 9 11 13 15 17 18 19 17
Wind_Direction
189 196 197 197 202 210 222 234 243 240 236 259 293 295 285 308 334 350 358 336 329 333 335 333 327 321 322 328 331 323 319 322 328 332 328 330 343 350 350 345 338 342
194 198 198 203 211 220 227 226 223 231 248 268 288 290 284 308 345 351 337 322 323 329 331 328 322 319 319 318 321 324 326 329 333 335 329 330 339 340 338 338 334 338
195 197 202 210 215 212 211 216 229 249 263 267 272 273 279 305 321 315 313 318 322 321 324 324 317 316 318 312 313 322 326 325 327 328 322 320 324 325 327 325 321 329
194 198 204 207 210 214 221 229 239 251 255 259 263 260 271 293 299 293 302 311 312 311 317 320 315 315 315 309 309 312 312 313 314 310 308 309 310 312 318 318 310 316
197 201 206 208 212 218 224 231 239 245 246 248 252 256 263 268 265 274 286 290 294 302 309 310 311 313 309 303 300 296 298 303 303 297 296 299 302 305 311 310 304 306
199 204 208 211 213 218 227 237 243 245 243 245 250 255 255 258 265 271 271 272 281 290 295 296 298 300 302 301 294 287 290 296 300 300 296 296 301 303 302 302 300 299
200 203 205 209 215 223 232 239 243 248 251 252 252 252 251 257 265 264 261 269 273 276 281 286 288 291 296 298 293 289 287 287 294 299 295 292 296 298 299 304 304 295
200 204 207 213 219 224 229 235 243 250 255 256 255 255 254 258 262 258 259 271 273 272 274 273 279 293 296 292 290 291 286 282 291 295 293 294 294 293 296 302 299 291
203 208 210 213 216 219 225 232 242 252 259 263 263 262 258 258 260 256 260 272 277 276 272 264 272 291 303 303 297 293 287 282 285 286 286 291 293 291 293 296 290 285
205 209 209 210 213 218 226 233 242 251 256 257 259 260 259 261 266 266 274 282 286 284 271 256 264 290 314 319 308 295 290 288 290 291 288 289 292 291 291 293 291 288
204 210 211 211 214 222 231 239 243 244 245 247 252 255 260 274 285 293 301 303 307 302 273 254 275 303 315 318 306 297 298 297 300 303 301 301 301 299 294 290 289 290
204 212 214 214 216 221 227 232 237 243 252 262 260 258 270 280 285 294 305 310 320 331 305 293 304 310 309 305 293 292 300 302 303 306 309 311 311 309 305 296 289 292
205 211 213 215 218 220 224 229 237 245 249 247 246 257 272 276 281 290 298 305 308 308 310 310 309 305 299 289 277 283 294 295 296 303 313 320 318 314 309 299 294 297
207 208 210 212 214 219 226 230 233 236 235 238 249 261 270 273 277 282 285 292 296 300 306 307 307 301 288 276 276 285 290 286 285 295 310 320 320 314 308 301 298 298
207 207 209 211 211 215 221 223 226 230 234 244 254 259 263 269 272 271 278 287 291 296 299 300 303 298 285 282 288 288 285 283 280 284 295 307 315 317 313 306 302 299
205 205 208 211 211 214 219 223 228 233 236 241 244 245 251 258 261 264 274 281 281 285 294 296 295 289 284 288 289 285 282 278 273 275 285 298 310 315 312 306 302 300
202 204 206 209 212 216 220 226 231 232 233 236 237 239 246 250 255 262 269 271 272 280 291 292 285 283 285 287 287 286 282 273 266 274 287 297 306 310 308 304 299 297
201 204 206 210 213 217 221 225 228 230 232 235 237 239 245 249 251 257 263 267 270 276 286 288 286 285 286 285 287 288 283 273 268 275 286 296 306 308 305 300 297 299
208 209 210 212 214 217 222 224 227 230 233 235 237 242 248 251 250 253 261 267 268 272 280 284 284 283 281 281 289 296 288 271 268 276 284 293 303 306 303 298 298 303
213 212 213 215 216 219 222 224 227 230 233 235 237 242 248 251 252 254 259 262 263 269 280 284 280 273 268 279 299 307 295 271 267 274 280 289 298 301 300 300 303 307
212 213 215 217 218 220 223 225 227 229 231 233 235 238 242 248 252 255 257 259 262 272 280 281 273 261 263 282 298 305 296 280 273 271 277 289 298 300 300 300 303 308
212 213 215 218 218 220 223 225 226 228 230 231 232 235 238 243 248 251 255 258 263 270 273 271 263 261 275 286 289 298 302 290 276 274 285 296 299 299 298 298 302 308
214 215 217 219 219 220 224 226 226 228 229 229 231 234 236 241 245 247 254 260 262 262 262 262 262 270 283 285 281 293 305 293 274 281 298 302 302 302 299 301 307 308
216 218 219 221 221 223 225 226 226 227 228 229 230 232 236 240 243 247 253 255 255 257 258 258 260 267 273 272 276 294 301 286 269 288 306 309 312 311 307 305 303 300
218 220 222 224 225 227 228 227 228 228 228 229 230 232 237 241 243 245 246 245 251 262 264 255 248 253 260 262 277 297 297 272 260 288 311 317 316 311 308 306 300 301
222 222 224 226 228 229 228 227 229 229 227 227 228 230 237 242 243 240 238 242 254 259 251 234 228 241 258 272 290 302 291 262 258 290 313 316 312 307 307 308 308 314